Saint Bonnet de Bellac- Haute Vienne - France
Donnes mto: samedi, 30/06/2012
Date Horaire Temp. E. Hum. E. P.atmo. Pluie Vent Direction Direction Ensoleilleme Solaire P. de rose Temp au vent Rafales
30/06/2012 00:00 17,1 C 73 % 1013,5 hPa 0,0 mm 0,0 km/h (0 Bft) O-NO 292 0 min 0 W/m 12,2 C 17,1 C 0,0 km/h (0 Bft)
30/06/2012 00:10 16,8 C 75 % 1013,5 hPa 0,0 mm 0,0 km/h (0 Bft) O-NO 292 0 min 0 W/m 12,3 C 16,8 C 0,0 km/h (0 Bft)
30/06/2012 00:20 16,6 C 77 % 1013,4 hPa 0,0 mm 0,0 km/h (0 Bft) O-NO 292 0 min 0 W/m 12,5 C 16,6 C 3,2 km/h (1 Bft)
30/06/2012 00:30 16,4 C 77 % 1013,4 hPa 0,0 mm 0,0 km/h (0 Bft) O-NO 292 0 min 0 W/m 12,4 C 16,4 C 0,0 km/h (0 Bft)
30/06/2012 00:40 16,5 C 75 % 1013,5 hPa 0,0 mm 4,7 km/h (1 Bft) O 270 0 min 0 W/m 12,1 C 16,5 C 4,7 km/h (1 Bft)
30/06/2012 00:50 16,5 C 74 % 1013,6 hPa 0,0 mm 0,0 km/h (0 Bft) O 270 0 min 0 W/m 11,8 C 16,5 C 0,0 km/h (0 Bft)
30/06/2012 01:00 16,5 C 74 % 1013,8 hPa 0,0 mm 0,0 km/h (0 Bft) S-SE 157 0 min 0 W/m 11,8 C 16,5 C 0,0 km/h (0 Bft)
30/06/2012 01:10 16,5 C 74 % 1013,9 hPa 0,0 mm 0,0 km/h (0 Bft) S-SO 202 0 min 0 W/m 11,8 C 16,5 C 0,0 km/h (0 Bft)
30/06/2012 01:20 16,4 C 74 % 1014,0 hPa 0,0 mm 0,0 km/h (0 Bft) O 270 0 min 0 W/m 11,8 C 16,4 C 0,0 km/h (0 Bft)
30/06/2012 01:30 16,2 C 75 % 1014,0 hPa 0,0 mm 0,4 km/h (0 Bft) O-NO 292 0 min 0 W/m 11,8 C 16,2 C 3,6 km/h (1 Bft)
30/06/2012 01:40 16,1 C 75 % 1014,0 hPa 0,0 mm 0,0 km/h (0 Bft) SO 225 0 min 0 W/m 11,7 C 16,1 C 0,0 km/h (0 Bft)
30/06/2012 01:50 15,8 C 75 % 1013,9 hPa 0,0 mm 0,0 km/h (0 Bft) O-SO 247 0 min 0 W/m 11,4 C 15,8 C 0,0 km/h (0 Bft)
30/06/2012 02:00 15,6 C 76 % 1013,9 hPa 0,0 mm 0,0 km/h (0 Bft) S-SE 157 0 min 0 W/m 11,4 C 15,6 C 0,0 km/h (0 Bft)
30/06/2012 02:10 15,4 C 77 % 1013,9 hPa 0,0 mm 0,0 km/h (0 Bft) S-SE 157 0 min 0 W/m 11,4 C 15,4 C 0,0 km/h (0 Bft)
30/06/2012 02:20 15,2 C 77 % 1014,0 hPa 0,0 mm 0,0 km/h (0 Bft) SO 225 0 min 0 W/m 11,2 C 15,2 C 0,0 km/h (0 Bft)
30/06/2012 02:30 14,9 C 78 % 1013,9 hPa 0,0 mm 0,0 km/h (0 Bft) O 270 0 min 0 W/m 11,1 C 14,9 C 0,0 km/h (0 Bft)
30/06/2012 02:40 14,8 C 79 % 1013,7 hPa 0,0 mm 0,7 km/h (0 Bft) O-NO 292 0 min 0 W/m 11,2 C 14,8 C 4,0 km/h (1 Bft)
30/06/2012 02:50 14,6 C 80 % 1013,6 hPa 0,0 mm 0,4 km/h (0 Bft) NO 315 0 min 0 W/m 11,2 C 14,6 C 2,9 km/h (1 Bft)
30/06/2012 03:02 14,6 C 82 % 1013,6 hPa 0,0 mm 0,0 km/h (0 Bft) NO 315 0 min 0 W/m 11,6 C 14,6 C 0,0 km/h (0 Bft)
30/06/2012 03:10 14,8 C 82 % 1013,4 hPa 0,0 mm 0,0 km/h (0 Bft) O-NO 292 0 min 0 W/m 11,8 C 14,8 C 0,0 km/h (0 Bft)
30/06/2012 03:20 14,8 C 82 % 1013,3 hPa 0,0 mm 0,0 km/h (0 Bft) O-NO 292 0 min 0 W/m 11,8 C 14,8 C 0,0 km/h (0 Bft)
30/06/2012 03:30 14,9 C 82 % 1013,3 hPa 0,0 mm 0,0 km/h (0 Bft) O-NO 292 0 min 0 W/m 11,9 C 14,9 C 0,0 km/h (0 Bft)
30/06/2012 03:40 15,1 C 81 % 1013,3 hPa 0,0 mm 0,0 km/h (0 Bft) O-NO 292 0 min 0 W/m 11,9 C 15,1 C 0,0 km/h (0 Bft)
30/06/2012 03:50 15,1 C 82 % 1013,2 hPa 0,0 mm 0,0 km/h (0 Bft) O-NO 292 0 min 0 W/m 12,0 C 15,1 C 0,0 km/h (0 Bft)
30/06/2012 04:00 15,2 C 82 % 1013,2 hPa 0,0 mm 0,0 km/h (0 Bft) O-NO 292 0 min 0 W/m 12,1 C 15,2 C 0,0 km/h (0 Bft)
30/06/2012 04:10 15,3 C 82 % 1013,2 hPa 0,0 mm 0,0 km/h (0 Bft) O-NO 292 0 min 0 W/m 12,2 C 15,3 C 0,0 km/h (0 Bft)
30/06/2012 04:20 15,3 C 82 % 1013,2 hPa 0,0 mm 0,0 km/h (0 Bft) O-NO 292 0 min 0 W/m 12,2 C 15,3 C 0,0 km/h (0 Bft)
30/06/2012 04:30 15,3 C 83 % 1013,1 hPa 0,0 mm 0,0 km/h (0 Bft) O-NO 292 0 min 0 W/m 12,4 C 15,3 C 0,0 km/h (0 Bft)
30/06/2012 04:40 15,3 C 83 % 1013,1 hPa 0,0 mm 0,0 km/h (0 Bft) O-NO 292 0 min 0 W/m 12,4 C 15,3 C 0,0 km/h (0 Bft)
30/06/2012 04:50 15,3 C 82 % 1013,1 hPa 0,0 mm 2,2 km/h (1 Bft) S-SE 157 0 min 0 W/m 12,2 C 15,3 C 7,2 km/h (2 Bft)
30/06/2012 05:00 15,3 C 83 % 1013,2 hPa 0,0 mm 0,0 km/h (0 Bft) S-SE 157 0 min 0 W/m 12,4 C 15,3 C 0,0 km/h (0 Bft)
30/06/2012 05:10 15,3 C 83 % 1013,1 hPa 0,0 mm 0,0 km/h (0 Bft) S-SE 157 0 min 0 W/m 12,4 C 15,3 C 0,0 km/h (0 Bft)
30/06/2012 05:20 15,4 C 82 % 1013,1 hPa 0,0 mm 0,0 km/h (0 Bft) S-SE 157 0 min 0 W/m 12,3 C 15,4 C 0,0 km/h (0 Bft)
30/06/2012 05:30 15,4 C 83 % 1013,1 hPa 0,0 mm 0,0 km/h (0 Bft) S-SE 157 0 min 0 W/m 12,5 C 15,4 C 0,0 km/h (0 Bft)
30/06/2012 05:40 15,4 C 83 % 1013,2 hPa 0,0 mm 0,0 km/h (0 Bft) S-SE 157 0 min 0 W/m 12,5 C 15,4 C 0,0 km/h (0 Bft)
30/06/2012 05:50 15,4 C 83 % 1013,2 hPa 0,0 mm 0,0 km/h (0 Bft) E-SE 112 0 min 0 W/m 12,5 C 15,4 C 2,9 km/h (1 Bft)
30/06/2012 06:00 15,4 C 83 % 1013,1 hPa 0,0 mm 0,7 km/h (0 Bft) SE 135 0 min 0 W/m 12,5 C 15,4 C 1,4 km/h (1 Bft)
30/06/2012 06:10 15,4 C 84 % 1013,3 hPa 0,0 mm 0,0 km/h (0 Bft) E 90 0 min 0 W/m 12,7 C 15,4 C 0,0 km/h (0 Bft)
30/06/2012 06:20 15,4 C 83 % 1013,2 hPa 0,0 mm 0,0 km/h (0 Bft) E 90 0 min 0 W/m 12,5 C 15,4 C 0,0 km/h (0 Bft)
30/06/2012 06:30 15,4 C 84 % 1013,3 hPa 0,0 mm 0,0 km/h (0 Bft) SE 135 0 min 0 W/m 12,7 C 15,4 C 0,0 km/h (0 Bft)
30/06/2012 06:40 15,4 C 84 % 1013,3 hPa 0,0 mm 0,0 km/h (0 Bft) SE 135 0 min 0 W/m 12,7 C 15,4 C 0,0 km/h (0 Bft)
30/06/2012 06:50 15,4 C 84 % 1013,3 hPa 0,0 mm 0,0 km/h (0 Bft) SE 135 0 min 0 W/m 12,7 C 15,4 C 0,0 km/h (0 Bft)
30/06/2012 07:00 15,5 C 84 % 1013,2 hPa 0,0 mm 0,0 km/h (0 Bft) SE 135 0 min 0 W/m 12,8 C 15,5 C 0,0 km/h (0 Bft)
30/06/2012 07:10 15,6 C 84 % 1013,2 hPa 0,0 mm 0,0 km/h (0 Bft) SE 135 0 min 0 W/m 12,9 C 15,6 C 0,0 km/h (0 Bft)
30/06/2012 07:20 15,7 C 84 % 1013,4 hPa 0,0 mm 0,0 km/h (0 Bft) SE 135 0 min 0 W/m 13,0 C 15,7 C 0,0 km/h (0 Bft)
30/06/2012 07:30 15,8 C 84 % 1013,3 hPa 0,0 mm 0,0 km/h (0 Bft) SE 135 0 min 0 W/m 13,1 C 15,8 C 0,0 km/h (0 Bft)
30/06/2012 07:40 15,8 C 84 % 1013,4 hPa 0,0 mm 0,0 km/h (0 Bft) SE 135 0 min 0 W/m 13,1 C 15,8 C 0,0 km/h (0 Bft)
30/06/2012 07:50 15,9 C 84 % 1013,4 hPa 0,0 mm 0,0 km/h (0 Bft) S-SE 157 0 min 0 W/m 13,2 C 15,9 C 0,0 km/h (0 Bft)
30/06/2012 08:00 16,0 C 84 % 1013,3 hPa 0,0 mm 0,0 km/h (0 Bft) S-SE 157 0 min 0 W/m 13,3 C 16,0 C 0,0 km/h (0 Bft)
30/06/2012 08:10 16,3 C 84 % 1013,3 hPa 0,0 mm 0,0 km/h (0 Bft) S-SE 157 0 min 0 W/m 13,6 C 16,3 C 0,0 km/h (0 Bft)
30/06/2012 08:20 16,8 C 82 % 1013,4 hPa 0,0 mm 0,0 km/h (0 Bft) S-SE 157 0 min 0 W/m 13,7 C 16,8 C 0,0 km/h (0 Bft)
30/06/2012 08:30 17,4 C 80 % 1013,6 hPa 0,0 mm 1,8 km/h (1 Bft) SE 135 0 min 0 W/m 13,9 C 17,4 C 3,6 km/h (1 Bft)
30/06/2012 08:40 18,1 C 77 % 1013,6 hPa 0,0 mm 0,0 km/h (0 Bft) N-NE 22 0 min 0 W/m 14,0 C 18,1 C 0,0 km/h (0 Bft)
30/06/2012 08:50 18,8 C 72 % 1013,6 hPa 0,0 mm 0,0 km/h (0 Bft) N-NE 22 0 min 0 W/m 13,6 C 18,8 C 0,0 km/h (0 Bft)
30/06/2012 09:00 19,1 C 70 % 1013,6 hPa 0,0 mm 2,2 km/h (1 Bft) N-NE 22 0 min 0 W/m 13,5 C 19,1 C 4,3 km/h (1 Bft)
30/06/2012 09:10 19,4 C 68 % 1013,6 hPa 0,0 mm 0,0 km/h (0 Bft) N 360 0 min 0 W/m 13,3 C 19,4 C 0,0 km/h (0 Bft)
30/06/2012 09:20 19,7 C 67 % 1013,7 hPa 0,0 mm 1,4 km/h (1 Bft) N 360 0 min 0 W/m 13,4 C 19,7 C 1,4 km/h (1 Bft)
30/06/2012 09:30 19,8 C 67 % 1013,7 hPa 0,0 mm 0,4 km/h (0 Bft) N-NO 337 0 min 0 W/m 13,5 C 19,8 C 4,0 km/h (1 Bft)
30/06/2012 09:40 19,9 C 66 % 1013,7 hPa 0,0 mm 0,0 km/h (0 Bft) N-NO 337 0 min 0 W/m 13,4 C 19,9 C 0,0 km/h (0 Bft)
30/06/2012 09:50 20,3 C 64 % 1013,7 hPa 0,0 mm 1,4 km/h (1 Bft) N 360 0 min 0 W/m 13,3 C 20,3 C 6,1 km/h (2 Bft)
30/06/2012 10:00 20,5 C 62 % 1013,8 hPa 0,0 mm 0,0 km/h (0 Bft) NE 45 0 min 0 W/m 13,0 C 20,5 C 0,0 km/h (0 Bft)
30/06/2012 10:10 20,6 C 62 % 1013,8 hPa 0,0 mm 0,0 km/h (0 Bft) N-NO 337 0 min 0 W/m 13,1 C 20,6 C 0,0 km/h (0 Bft)
30/06/2012 10:20 20,7 C 62 % 1013,7 hPa 0,0 mm 2,2 km/h (1 Bft) NO 315 0 min 0 W/m 13,2 C 20,7 C 7,2 km/h (2 Bft)
30/06/2012 10:30 20,8 C 63 % 1013,8 hPa 0,0 mm 0,4 km/h (0 Bft) N-NO 337 0 min 0 W/m 13,5 C 20,8 C 3,6 km/h (1 Bft)
30/06/2012 10:40 21,1 C 62 % 1013,7 hPa 0,0 mm 3,2 km/h (1 Bft) O 270 0 min 0 W/m 13,5 C 21,1 C 8,3 km/h (2 Bft)
30/06/2012 10:50 21,6 C 59 % 1013,7 hPa 0,0 mm 0,7 km/h (0 Bft) N-NE 22 0 min 0 W/m 13,2 C 21,6 C 4,3 km/h (1 Bft)
30/06/2012 11:00 22,0 C 58 % 1013,7 hPa 0,0 mm 1,4 km/h (1 Bft) N-NO 337 0 min 0 W/m 13,3 C 22,0 C 4,3 km/h (1 Bft)
30/06/2012 11:10 22,1 C 55 % 1013,7 hPa 0,0 mm 2,2 km/h (1 Bft) N-NE 22 0 min 0 W/m 12,6 C 22,1 C 6,1 km/h (2 Bft)
30/06/2012 11:20 22,3 C 56 % 1013,7 hPa 0,0 mm 0,0 km/h (0 Bft) NO 315 0 min 0 W/m 13,1 C 22,3 C 0,0 km/h (0 Bft)
30/06/2012 11:30 22,6 C 55 % 1013,7 hPa 0,0 mm 0,7 km/h (0 Bft) N-NO 337 0 min 0 W/m 13,1 C 22,6 C 0,7 km/h (0 Bft)
30/06/2012 11:40 22,9 C 55 % 1013,6 hPa 0,0 mm 2,5 km/h (1 Bft) E-NE 67 0 min 0 W/m 13,4 C 22,9 C 3,6 km/h (1 Bft)
30/06/2012 11:50 23,1 C 54 % 1013,6 hPa 0,0 mm 0,0 km/h (0 Bft) N 360 0 min 0 W/m 13,3 C 23,1 C 0,0 km/h (0 Bft)
30/06/2012 12:00 23,6 C 54 % 1013,6 hPa 0,0 mm 0,0 km/h (0 Bft) N 360 0 min 0 W/m 13,7 C 23,6 C 0,0 km/h (0 Bft)
30/06/2012 12:10 23,8 C 52 % 1013,6 hPa 0,0 mm 2,5 km/h (1 Bft) NO 315 0 min 0 W/m 13,3 C 23,8 C 4,3 km/h (1 Bft)
30/06/2012 12:20 24,0 C 52 % 1013,6 hPa 0,0 mm 3,6 km/h (1 Bft) E-NE 67 0 min 0 W/m 13,5 C 24,0 C 4,0 km/h (1 Bft)
30/06/2012 12:30 24,3 C 51 % 1013,6 hPa 0,0 mm 7,2 km/h (2 Bft) E-NE 67 0 min 0 W/m 13,5 C 24,3 C 7,9 km/h (2 Bft)
30/06/2012 12:40 24,6 C 49 % 1013,6 hPa 0,0 mm 0,4 km/h (0 Bft) N-NE 22 0 min 0 W/m 13,2 C 24,6 C 3,2 km/h (1 Bft)
30/06/2012 12:50 24,6 C 48 % 1013,6 hPa 0,0 mm 0,4 km/h (0 Bft) O-NO 292 0 min 0 W/m 12,8 C 24,6 C 4,0 km/h (1 Bft)
30/06/2012 13:00 24,9 C 48 % 1013,5 hPa 0,0 mm 1,4 km/h (1 Bft) N-NO 337 0 min 0 W/m 13,1 C 24,9 C 4,0 km/h (1 Bft)
30/06/2012 13:10 25,2 C 47 % 1013,4 hPa 0,0 mm 1,4 km/h (1 Bft) O 270 0 min 0 W/m 13,1 C 25,2 C 3,6 km/h (1 Bft)
30/06/2012 13:20 25,2 C 51 % 1013,3 hPa 0,0 mm 2,2 km/h (1 Bft) N-NO 337 0 min 0 W/m 14,3 C 25,2 C 2,2 km/h (1 Bft)
30/06/2012 13:30 25,4 C 50 % 1013,3 hPa 0,0 mm 2,2 km/h (1 Bft) N 360 0 min 0 W/m 14,2 C 25,4 C 2,2 km/h (1 Bft)
30/06/2012 13:40 25,5 C 49 % 1013,3 hPa 0,0 mm 0,4 km/h (0 Bft) S-SO 202 0 min 0 W/m 14,0 C 25,5 C 3,2 km/h (1 Bft)
30/06/2012 13:50 25,8 C 48 % 1013,3 hPa 0,0 mm 4,0 km/h (1 Bft) SO 225 0 min 0 W/m 13,9 C 25,8 C 4,0 km/h (1 Bft)
30/06/2012 14:00 25,8 C 50 % 1013,3 hPa 0,0 mm 2,9 km/h (1 Bft) S-SO 202 0 min 0 W/m 14,6 C 25,8 C 5,0 km/h (1 Bft)
30/06/2012 14:10 25,9 C 49 % 1013,3 hPa 0,0 mm 0,0 km/h (0 Bft) O 270 0 min 0 W/m 14,4 C 25,9 C 0,0 km/h (0 Bft)
30/06/2012 14:20 26,2 C 49 % 1013,3 hPa 0,0 mm 1,1 km/h (1 Bft) O-SO 247 0 min 0 W/m 14,6 C 26,2 C 4,3 km/h (1 Bft)
30/06/2012 14:30 26,1 C 48 % 1013,3 hPa 0,0 mm 0,0 km/h (0 Bft) O-SO 247 0 min 0 W/m 14,2 C 26,1 C 0,0 km/h (0 Bft)
30/06/2012 14:40 25,7 C 49 % 1013,3 hPa 0,0 mm 0,0 km/h (0 Bft) N 360 0 min 0 W/m 14,2 C 25,7 C 0,0 km/h (0 Bft)
30/06/2012 14:50 25,5 C 49 % 1013,3 hPa 0,0 mm 0,7 km/h (0 Bft) SO 225 0 min 0 W/m 14,0 C 25,5 C 3,6 km/h (1 Bft)
30/06/2012 15:00 25,6 C 51 % 1013,3 hPa 0,0 mm 0,7 km/h (0 Bft) O-NO 292 0 min 0 W/m 14,7 C 25,6 C 7,6 km/h (2 Bft)
30/06/2012 15:10 25,5 C 50 % 1013,3 hPa 0,0 mm 0,4 km/h (0 Bft) O 270 0 min 0 W/m 14,3 C 25,5 C 4,3 km/h (1 Bft)
30/06/2012 15:20 25,1 C 51 % 1013,3 hPa 0,0 mm 1,1 km/h (1 Bft) O-NO 292 0 min 0 W/m 14,2 C 25,1 C 1,1 km/h (1 Bft)
30/06/2012 15:30 24,7 C 52 % 1013,4 hPa 0,0 mm 1,4 km/h (1 Bft) S-SO 202 0 min 0 W/m 14,2 C 24,7 C 6,5 km/h (2 Bft)
30/06/2012 15:40 24,8 C 54 % 1013,4 hPa 0,0 mm 1,8 km/h (1 Bft) O 270 0 min 0 W/m 14,8 C 24,8 C 7,6 km/h (2 Bft)
30/06/2012 15:50 25,1 C 51 % 1013,5 hPa 0,0 mm 1,1 km/h (1 Bft) O-SO 247 0 min 0 W/m 14,2 C 25,1 C 6,1 km/h (2 Bft)
30/06/2012 16:00 24,9 C 50 % 1013,5 hPa 0,0 mm 0,7 km/h (0 Bft) O-SO 247 0 min 0 W/m 13,7 C 24,9 C 4,3 km/h (1 Bft)
30/06/2012 16:10 24,8 C 50 % 1013,6 hPa 0,0 mm 3,2 km/h (1 Bft) NO 315 0 min 0 W/m 13,7 C 24,8 C 6,5 km/h (2 Bft)
30/06/2012 16:20 24,4 C 51 % 1013,7 hPa 0,0 mm 2,2 km/h (1 Bft) O-NO 292 0 min 0 W/m 13,6 C 24,4 C 2,2 km/h (1 Bft)
30/06/2012 16:30 24,4 C 50 % 1013,5 hPa 0,0 mm 0,0 km/h (0 Bft) O-NO 292 0 min 0 W/m 13,3 C 24,4 C 0,0 km/h (0 Bft)
30/06/2012 16:40 24,7 C 51 % 1013,6 hPa 0,0 mm 0,0 km/h (0 Bft) O-NO 292 0 min 0 W/m 13,9 C 24,7 C 0,0 km/h (0 Bft)
30/06/2012 16:50 24,8 C 49 % 1013,5 hPa 0,0 mm 7,6 km/h (2 Bft) O-SO 247 0 min 0 W/m 13,3 C 24,8 C 12,2 km/h (2 Bft)
30/06/2012 17:00 24,3 C 51 % 1013,7 hPa 0,0 mm 5,0 km/h (1 Bft) O-SO 247 0 min 0 W/m 13,5 C 24,3 C 9,7 km/h (2 Bft)
30/06/2012 17:10 23,9 C 52 % 1013,8 hPa 0,0 mm 5,8 km/h (2 Bft) O 270 0 min 0 W/m 13,4 C 23,9 C 13,0 km/h (3 Bft)
30/06/2012 17:20 23,6 C 54 % 1013,9 hPa 0,0 mm 4,0 km/h (1 Bft) O-NO 292 0 min 0 W/m 13,7 C 23,6 C 8,3 km/h (2 Bft)
30/06/2012 17:30 23,8 C 53 % 1013,8 hPa 0,0 mm 2,9 km/h (1 Bft) SO 225 0 min 0 W/m 13,6 C 23,8 C 7,6 km/h (2 Bft)
30/06/2012 17:40 24,0 C 52 % 1013,7 hPa 0,0 mm 2,2 km/h (1 Bft) E 90 0 min 0 W/m 13,5 C 24,0 C 4,3 km/h (1 Bft)
30/06/2012 17:50 24,1 C 52 % 1013,9 hPa 0,0 mm 1,4 km/h (1 Bft) O-NO 292 0 min 0 W/m 13,6 C 24,1 C 3,6 km/h (1 Bft)
30/06/2012 18:00 24,3 C 52 % 1013,9 hPa 0,0 mm 7,2 km/h (2 Bft) O 270 0 min 0 W/m 13,8 C 24,3 C 7,2 km/h (2 Bft)
30/06/2012 18:10 24,1 C 51 % 1014,0 hPa 0,0 mm 0,0 km/h (0 Bft) O-NO 292 0 min 0 W/m 13,3 C 24,1 C 0,0 km/h (0 Bft)
30/06/2012 18:20 23,6 C 53 % 1014,2 hPa 0,0 mm 4,7 km/h (1 Bft) O 270 0 min 0 W/m 13,4 C 23,6 C 7,6 km/h (2 Bft)
30/06/2012 18:30 23,1 C 55 % 1014,1 hPa 0,0 mm 0,0 km/h (0 Bft) N-NO 337 0 min 0 W/m 13,6 C 23,1 C 3,2 km/h (1 Bft)
30/06/2012 18:40 22,6 C 55 % 1014,1 hPa 0,0 mm 4,0 km/h (1 Bft) O-SO 247 0 min 0 W/m 13,1 C 22,6 C 9,0 km/h (2 Bft)
30/06/2012 18:50 22,3 C 57 % 1014,3 hPa 0,0 mm 2,2 km/h (1 Bft) SO 225 0 min 0 W/m 13,4 C 22,3 C 6,1 km/h (2 Bft)
30/06/2012 19:00 22,3 C 58 % 1014,3 hPa 0,0 mm 3,2 km/h (1 Bft) NO 315 0 min 0 W/m 13,6 C 22,3 C 4,0 km/h (1 Bft)
30/06/2012 19:10 22,6 C 56 % 1014,4 hPa 0,0 mm 0,0 km/h (0 Bft) N-NO 337 0 min 0 W/m 13,4 C 22,6 C 2,9 km/h (1 Bft)
30/06/2012 19:20 22,9 C 56 % 1014,6 hPa 0,0 mm 3,2 km/h (1 Bft) SO 225 0 min 0 W/m 13,6 C 22,9 C 3,2 km/h (1 Bft)
30/06/2012 19:30 23,3 C 54 % 1014,4 hPa 0,0 mm 2,2 km/h (1 Bft) O 270 0 min 0 W/m 13,5 C 23,3 C 10,1 km/h (2 Bft)
30/06/2012 19:40 23,3 C 53 % 1014,4 hPa 0,0 mm 4,3 km/h (1 Bft) O 270 0 min 0 W/m 13,2 C 23,3 C 10,8 km/h (2 Bft)
30/06/2012 19:50 23,2 C 53 % 1014,7 hPa 0,0 mm 4,7 km/h (1 Bft) O-SO 247 0 min 0 W/m 13,1 C 23,2 C 6,5 km/h (2 Bft)
30/06/2012 20:00 22,8 C 54 % 1014,7 hPa 0,0 mm 2,9 km/h (1 Bft) O-SO 247 0 min 0 W/m 13,0 C 22,8 C 6,1 km/h (2 Bft)
30/06/2012 20:10 22,3 C 56 % 1014,7 hPa 0,0 mm 0,7 km/h (0 Bft) O 270 0 min 0 W/m 13,1 C 22,3 C 3,2 km/h (1 Bft)
30/06/2012 20:20 21,7 C 56 % 1014,7 hPa 0,0 mm 4,7 km/h (1 Bft) O-NO 292 0 min 0 W/m 12,5 C 21,7 C 12,2 km/h (2 Bft)
30/06/2012 20:30 21,2 C 57 % 1014,8 hPa 0,0 mm 1,4 km/h (1 Bft) O-SO 247 0 min 0 W/m 12,3 C 21,2 C 3,6 km/h (1 Bft)
30/06/2012 20:40 20,8 C 58 % 1014,8 hPa 0,0 mm 0,0 km/h (0 Bft) O 270 0 min 0 W/m 12,2 C 20,8 C 4,0 km/h (1 Bft)
30/06/2012 20:50 20,3 C 59 % 1014,7 hPa 0,0 mm 0,4 km/h (0 Bft) NO 315 0 min 0 W/m 12,0 C 20,3 C 3,6 km/h (1 Bft)
30/06/2012 21:00 19,8 C 60 % 1014,8 hPa 0,0 mm 0,7 km/h (0 Bft) N-NE 22 0 min 0 W/m 11,8 C 19,8 C 4,3 km/h (1 Bft)
30/06/2012 21:10 19,4 C 62 % 1014,9 hPa 0,0 mm 2,9 km/h (1 Bft) O 270 0 min 0 W/m 11,9 C 19,4 C 7,9 km/h (2 Bft)
30/06/2012 21:20 19,1 C 64 % 1015,1 hPa 0,0 mm 0,4 km/h (0 Bft) O-SO 247 0 min 0 W/m 12,1 C 19,1 C 0,4 km/h (0 Bft)
30/06/2012 21:30 18,6 C 65 % 1015,0 hPa 0,0 mm 1,1 km/h (1 Bft) O 270 0 min 0 W/m 11,9 C 18,6 C 1,1 km/h (1 Bft)
30/06/2012 21:40 18,3 C 66 % 1015,1 hPa 0,0 mm 1,1 km/h (1 Bft) O 270 0 min 0 W/m 11,8 C 18,3 C 4,0 km/h (1 Bft)
30/06/2012 21:50 17,9 C 67 % 1015,1 hPa 0,0 mm 0,0 km/h (0 Bft) O 270 0 min 0 W/m 11,7 C 17,9 C 0,0 km/h (0 Bft)
30/06/2012 22:00 17,6 C 68 % 1015,6 hPa 0,0 mm 0,0 km/h (0 Bft) O-SO 247 0 min 0 W/m 11,6 C 17,6 C 0,0 km/h (0 Bft)
30/06/2012 22:10 17,2 C 69 % 1015,7 hPa 0,0 mm 0,0 km/h (0 Bft) O-SO 247 0 min 0 W/m 11,5 C 17,2 C 0,0 km/h (0 Bft)
30/06/2012 22:20 16,9 C 70 % 1015,8 hPa 0,0 mm 0,0 km/h (0 Bft) O-SO 247 0 min 0 W/m 11,4 C 16,9 C 0,0 km/h (0 Bft)
30/06/2012 22:30 16,6 C 71 % 1016,0 hPa 0,0 mm 0,0 km/h (0 Bft) O 270 0 min 0 W/m 11,3 C 16,6 C 0,0 km/h (0 Bft)
30/06/2012 22:40 16,4 C 72 % 1016,3 hPa 0,0 mm 0,0 km/h (0 Bft) S-SO 202 0 min 0 W/m 11,3 C 16,4 C 0,0 km/h (0 Bft)
30/06/2012 22:50 16,2 C 73 % 1016,1 hPa 0,0 mm 0,0 km/h (0 Bft) O-NO 292 0 min 0 W/m 11,4 C 16,2 C 0,0 km/h (0 Bft)
30/06/2012 23:00 16,1 C 73 % 1016,4 hPa 0,0 mm 0,7 km/h (0 Bft) O 270 0 min 0 W/m 11,3 C 16,1 C 4,0 km/h (1 Bft)
30/06/2012 23:10 15,9 C 74 % 1016,5 hPa 0,0 mm 4,3 km/h (1 Bft) O 270 0 min 0 W/m 11,3 C 15,9 C 7,6 km/h (2 Bft)
30/06/2012 23:20 15,8 C 74 % 1016,6 hPa 0,0 mm 0,0 km/h (0 Bft) O-NO 292 0 min 0 W/m 11,2 C 15,8 C 0,0 km/h (0 Bft)
30/06/2012 23:30 15,8 C 74 % 1016,7 hPa 0,0 mm 0,0 km/h (0 Bft) O-NO 292 0 min 0 W/m 11,2 C 15,8 C 0,0 km/h (0 Bft)
30/06/2012 23:40 15,8 C 74 % 1016,7 hPa 0,0 mm 1,8 km/h (1 Bft) O-SO 247 0 min 0 W/m 11,2 C 15,8 C 3,6 km/h (1 Bft)
30/06/2012 23:50 15,8 C 75 % 1017,1 hPa 0,0 mm 4,7 km/h (1 Bft) O-SO 247 0 min 0 W/m 11,4 C 15,8 C 8,3 km/h (2 Bft)
_ Min-Heure 03:02 13:10 06:00 - 23:30 - - - - 02:30 03:02 23:30
Minimum _ 14,6 C 47 % 1013,1 hPa - 0,0 km/h (0 Bft) - - - - 11,1 C 14,6 C 0,0 km/h (0 Bft)
_ Max-Heure 14:20 08:10 23:50 23:50 16:50 - - 23:50 23:50 15:40 14:20 17:10
Maximum _ 26,2 C 84 % 1017,1 hPa 0,0 mm 7,6 km/h
O-SO (2 Bft)
- - 0 min 0 W/m 14,8 C 26,2 C 13,0 km/h
O (3 Bft)
Moyenne _ 19,7 C 66 % 1013,9 hPa #0,0 mm 1,2 km/h (1 Bft) O-NO - #0 min. 0 W/m 12,8 C 19,7 C 2,7 km/h (1 Bft)
Saint Bonnet de Bellac- Haute Vienne - France